Regional Weather Roundup
Issued by NWS

Home | Current Version | Previous Version | Graphics & Text | Print | Product List | Glossary On
Versions: 1 2 3 4 5 6 7 8 9 10 11 12 13 14 15 16 17 18 19 20 21 22 23 24 25 26 27 28 29 30 31 32 33 34 35 36 37 38 39 40 41 42 43 44 45 46 47 48 49 50
000
ASUS43 KIND 052259
RWRIN

WEATHER ROUNDUP FOR INDIANA
NATIONAL WEATHER SERVICE INDIANAPOLIS IN
600 PM EST FRI FEB 05 2016

NOTE: "FAIR" INDICATES FEW OR NO CLOUDS BELOW 12,000 FEET WITH NO
SIGNIFICANT WEATHER AND/OR OBSTRUCTIONS TO VISIBILITY.

* - STATION DOES NOT REPORT WEATHER SUCH AS PRECIPITATION OR FOG.

+ - STATION NOT QUALITY CONTROLLED BY THE NATIONAL WEATHER SERVICE.
    USE DATA WITH CAUTION...ESPECIALLY DEWPOINT AND RELATIVE
    HUMIDITY OBSERVATIONS.

INZ001>003-010>013-019-020-060000-
NORTHWEST INDIANA

CITY           SKY/WX    TMP DP  RH WIND       PRES   REMARKS
GARY /AIRPORT/ CLOUDY    34  21  60 W10       30.37R WCI  26
RENSSELAER +   MOCLDY    32  23  69 W7        30.37R WCI  26

$$

LMZ046-743>745-060000-
SOUTHERN LAKE MICHIGAN

STATION/POSITION TIME  TEMP    WIND        PRES    WAVE
                       AIR SEA DIR/SP/G            HT
                 (UTC) (F)     (DEG/KT/KT) (MB)    (FT)
BURNS HARBOR     2200   30     330/  5/  7 1028.4R
MICHIGAN CITY    2200   30     310/  9/ 10   N/A

$$

INZ004-005-014>016-021>024-060000-
NORTH CENTRAL INDIANA

CITY           SKY/WX    TMP DP  RH WIND       PRES   REMARKS
ELKHART          N/A     30  25  80 W9        30.34R WCI  22
GOSHEN         LGT SNOW  31  26  82 W12       30.33R WCI  22
PERU/GRISSOM   CLOUDY    30  24  76 W6        30.34R WCI  24
SOUTH BEND     CLOUDY    29  23  78 NW10      30.35R WCI  20

$$

INZ006>009-017-018-025>027-060000-
NORTHEAST INDIANA

CITY           SKY/WX    TMP DP  RH WIND       PRES   REMARKS
ANGOLA *+      MOCLDY    30  27  86 SW8       30.30R WCI  23
FORT WAYNE     CLOUDY    31  23  72 W13       30.34R WCI  21

$$

INZ028-029-035-036-043>045-051>053-060000-
WEST CENTRAL INDIANA

CITY           SKY/WX    TMP DP  RH WIND       PRES   REMARKS
GREENCASTLE +  PTCLDY    32  19  59 NW6       30.37R WCI  26
LAFAYETTE      CLOUDY    30  22  72 W8        30.39R WCI  22
TERRE HAUTE    CLEAR     32  23  69 NW7       30.39S WCI  26

$$

INZ030>032-037>040-046>048-054>057-064-065-060000-
CENTRAL INDIANA

CITY           SKY/WX    TMP DP  RH WIND       PRES   REMARKS
COLUMBUS       CLEAR     39  21  48 W17       30.34R
GREENWOOD *+   PTCLDY    37  27  65 W8        30.35R
INDIANAPOLIS   MOCLDY    34  22  61 NW12      30.35R WCI  25
-EAGLE CREEK   CLEAR     33  24  69 NW13      30.36R WCI  24
KOKOMO *+      CLOUDY    30  21  69 W8        30.36R WCI  23
MT COMFORT *+  CLEAR     34  25  69 NW8       30.35R WCI  27
SHELBYVILLE    CLEAR     38  23  55 W7        30.33R

$$

INZ033-034-041-042-049-050-058-059-060000-
EAST CENTRAL INDIANA

CITY           SKY/WX    TMP DP  RH WIND       PRES   REMARKS
MUNCIE         PTCLDY    33  23  66 W9        30.34R WCI  25

$$

INZ060-061-067>069-081>083-085>088-060000-
SOUTHWEST INDIANA

CITY           SKY/WX    TMP DP  RH WIND       PRES   REMARKS
EVANSVILLE     CLEAR     46  22  38 W6        30.39R
HUNTINGBURG *+ CLEAR     41  25  52 W7        30.38R

$$

INZ062-063-066-070>080-084-089>092-060000-
SOUTH CENTRAL AND SOUTHEAST INDIANA

CITY           SKY/WX    TMP DP  RH WIND       PRES   REMARKS
BLOOMINGTON    CLEAR     36  26  67 NW6       30.35R
MADISON *+     CLOUDY    41  21  45 S8        30.37R
SEYMOUR +      CLEAR     41  25  52 SW9       30.35R

$$




USA.gov is the U.S. government's official web portal to all federal, state and local government web resources and services.